GW4166 Weather Reports


Display with metric or nautical units.
time (UTC)temp
F
wind
direction
speed
MPH
gust
MPH
rain 1hr
in
rain 24hr
in
rain mn
in
humidity
%
barometer
mb
20260507220028 56 285 1.0 5.0 0.00 0.00 0.00 45 1009.1
20260507214532 56 281 2.0 4.0 0.00 0.00 0.00 45 1009.0
20260507213031 55 303 1.0 4.0 0.00 0.00 0.00 45 1009.0
20260507211526 56 281 2.0 6.0 0.00 0.00 0.00 44 1009.0
20260507210030 56 270 2.0 5.0 0.00 0.00 0.00 45 1008.9
20260507204528 55 253 1.0 5.0 0.00 0.00 0.00 45 1008.9
20260507203040 56 260 1.0 5.0 0.00 0.00 0.00 43 1008.9
20260507201532 55 238 1.0 4.0 0.00 0.00 0.00 47 1009.0
20260507200031 56 248 2.0 4.0 0.00 0.00 0.00 46 1009.0
20260507194531 57 267 2.0 5.0 0.00 0.00 0.00 43 1009.2
20260507193030 56 277 1.0 3.0 0.00 0.00 0.00 47 1009.2
20260507191532 57 257 1.0 5.0 0.00 0.00 0.00 47 1009.4
20260507190028 55 248 1.0 3.0 0.00 0.00 0.00 48 1009.5
20260507184527 54 269 1.0 3.0 0.00 0.00 0.00 49 1009.6
20260507183056 54 264 1.0 4.0 0.00 0.00 0.00 49 1009.6
20260507181528 56 257 1.0 4.0 0.00 0.00 0.00 46 1009.6
20260507180031 56 0 0.0 4.0 0.00 0.00 0.00 49 1009.6
20260507174539 55 268 1.0 4.0 0.00 0.00 0.00 47 1009.7
20260507173051 57 240 0.0 4.0 0.00 0.00 0.00 48 1010.1
20260507171529 54 303 1.0 3.0 0.00 0.00 0.00 52 1010.4
20260507170036 54 204 1.0 3.0 0.00 0.00 0.00 50 1010.5
20260507164533 53 240 0.0 2.0 0.00 0.00 0.00 52 1010.5
20260507163029 53 0 0.0 3.0 0.00 0.00 0.00 51 1010.8
20260507161539 54 303 0.0 4.0 0.00 0.00 0.00 52 1010.9
20260507160030 56 195 1.0 4.0 0.00 0.00 0.00 45 1010.8
20260507154529 55 238 1.0 3.0 0.00 0.00 0.00 47 1011.1
20260507153028 54 278 1.0 4.0 0.00 0.00 0.00 51 1011.1
20260507151528 52 248 1.0 3.0 0.00 0.00 0.00 52 1011.3
20260507150037 51 260 0.0 4.0 0.00 0.00 0.00 52 1011.4
20260507144531 52 248 1.0 4.0 0.00 0.00 0.00 51 1011.5
20260507143028 53 285 1.0 3.0 0.00 0.00 0.00 54 1011.7
20260507141545 52 234 1.0 6.0 0.00 0.00 0.00 52 1011.8
20260507140028 52 279 1.0 3.0 0.00 0.00 0.00 58 1012.0
20260507134528 50 219 0.0 2.0 0.00 0.00 0.00 63 1012.1
20260507133047 49 0 0.0 2.0 0.00 0.00 0.00 70 1012.1
20260507131529 46 213 0.0 2.0 0.00 0.00 0.00 78 1012.2
20260507130034 43 160 0.0 2.0 0.00 0.00 0.00 80 1012.1
20260507124529 41 151 0.0 2.0 0.00 0.00 0.00 82 1012.3
20260507123037 40 120 1.0 2.0 0.00 0.00 0.00 84 1012.2
20260507121528 39 133 1.0 2.0 0.00 0.00 0.00 84 1012.2
20260507120034 38 145 1.0 2.0 0.00 0.00 0.00 86 1012.3
20260507114528 37 124 1.0 2.0 0.00 0.00 0.00 89 1012.3
20260507113034 37 147 1.0 2.0 0.00 0.00 0.00 90 1012.0
20260507111529 36 157 0.0 2.0 0.00 0.00 0.00 90 1012.1
20260507110037 36 0 0.0 0.0 0.00 0.00 0.00 90 1012.1
20260507104531 37 0 0.0 0.0 0.00 0.00 0.00 90 1012.0
20260507103031 37 0 0.0 0.0 0.00 0.00 0.00 89 1011.8
20260507101534 37 0 0.0 0.0 0.00 0.00 0.00 87 1011.8
20260507100030 37 0 0.0 0.0 0.00 0.00 0.00 86 1011.7
20260507094533 38 0 0.0 0.0 0.00 0.00 0.00 85 1011.5
20260507093028 39 0 0.0 0.0 0.00 0.00 0.00 78 1011.6
20260507091532 39 0 0.0 0.0 0.00 0.00 0.00 77 1011.8
20260507090029 39 0 0.0 0.0 0.00 0.00 0.00 75 1011.8
20260507084528 39 0 0.0 0.0 0.00 0.00 0.00 76 1011.8
20260507083030 39 0 0.0 2.0 0.00 0.00 0.00 77 1011.8
20260507081536 40 0 0.0 1.0 0.00 0.00 0.00 81 1012.0
20260507080030 40 0 0.0 0.0 0.00 0.00 0.00 77 1012.0
20260507074530 40 0 0.0 0.0 0.00 0.00 0.00 77 1012.1
20260507073028 40 0 0.0 0.0 0.00 0.00 0.00 78 1011.9
20260507071529 40 0 0.0 0.0 0.00 0.00 0.00 77 1012.0
20260507070039 41 0 0.0 0.0 0.00 0.00 0.00 79 1012.0
20260507064529 41 0 0.0 0.0 0.00 0.00 0.00 75 1012.1
20260507063026 42 0 0.0 0.0 0.00 0.00 0.00 77 1012.3
20260507061528 42 0 0.0 0.0 0.00 0.00 0.00 76 1012.3
20260507060030 42 0 0.0 0.0 0.00 0.00 0.00 73 1012.3
20260507054529 42 0 0.0 0.0 0.00 0.00 0.00 74 1012.5
20260507053030 43 0 0.0 0.0 0.00 0.00 0.00 73 1012.7
20260507051529 43 0 0.0 1.0 0.00 0.00 0.00 71 1012.8
20260507050032 43 0 0.0 2.0 0.00 0.00 0.00 70 1012.9
20260507044529 43 289 0.0 2.0 0.00 0.00 0.00 71 1012.9
20260507043028 43 292 0.0 2.0 0.00 0.00 0.00 71 1012.8
20260507041527 43 299 0.0 2.0 0.00 0.00 0.00 71 1013.2
20260507040028 43 287 0.0 2.0 0.00 0.00 0.00 69 1013.0
20260507034539 43 290 0.0 2.0 0.00 0.00 0.00 68 1012.9
20260507033042 43 288 0.0 2.0 0.00 0.00 0.00 68 1012.8
20260507031545 44 299 1.0 2.0 0.00 0.00 0.00 69 1012.8
20260507030030 44 287 0.0 2.0 0.00 0.00 0.00 67 1012.9
20260507024529 44 0 0.0 2.0 0.00 0.00 0.00 66 1012.7
20260507023029 44 292 0.0 2.0 0.00 0.00 0.00 65 1012.7
20260507021530 45 0 0.0 2.0 0.00 0.00 0.00 64 1012.3
20260507020029 45 288 0.0 2.0 0.00 0.00 0.00 63 1012.3
20260507014540 45 300 0.0 3.0 0.00 0.00 0.00 63 1012.3
20260507013036 46 0 0.0 2.0 0.00 0.00 0.00 62 1012.3
20260507011533 46 0 0.0 2.0 0.00 0.00 0.00 60 1012.2
20260507010035 46 294 0.0 2.0 0.00 0.00 0.00 60 1012.3
20260507004527 46 301 1.0 3.0 0.00 0.00 0.00 59 1012.3
20260507003030 47 302 0.0 2.0 0.00 0.00 0.00 59 1012.3
20260507001534 47 298 1.0 4.0 0.00 0.00 0.00 57 1012.7
20260507000028 47 299 1.0 4.0 0.00 0.00 0.00 59 1012.3
20260506234528 48 282 1.0 2.0 0.00 0.00 0.00 61 1012.2
20260506233030 48 288 1.0 3.0 0.00 0.00 0.00 61 1011.9
20260506231527 48 292 1.0 4.0 0.00 0.00 0.00 61 1011.7
20260506230026 49 280 2.0 4.0 0.00 0.00 0.00 57 1011.5
20260506224530 49 282 1.0 4.0 0.00 0.00 0.00 60 1011.2
20260506223027 50 284 2.0 4.0 0.00 0.00 0.00 57 1011.2
20260506221530 49 277 1.0 4.0 0.00 0.00 0.00 60 1011.0